Location: Gwatt
(46.7204°N, 7.6223°E)
Time: 02:30:16
(UTC+00:00)

Courier 1B Rocket - Pass Details

Date: 30 January 2021
Orbit: 920 x 1202 km, 28.3° (Epoch: 05 March)

Event Time Altitude Azimuth Distance (km) Brightness Sun altitude
Rises 07:08:45 0° 242° (WSW) 3,656 7.7 1.1°
Reaches altitude 10° 07:13:02 10° 216° (SW) 2,766 7.3 1.8°
Maximum altitude 07:15:52 13° 190° (S) 2,590 7.5 2.2°
Drops below altitude 10° 07:18:47 10° 165° (SSE) 2,852 8.2 2.6°
Sets 07:23:22 0° 140° (SE) 3,877 9.8 3.3°
